軌道要素
Epoch 2023 Feb. 25.0 TT = JDT 2460000.5
T 2024 Mar. 26.55867 TT Rudenko
q 2.2216349 (2000.0) P Q
n 0.13553972 Peri. 250.39779 +0.35671045 +0.92394235
a 3.7534012 Node 41.34697 -0.75947962 +0.37292119
e 0.4081009 Incl. 12.07182 -0.54401136 +0.08520751
P 7.27
>From 201 observations 1980 Sept. 28-2023 Apr. 18, mean residual 0".8.
Nongravitational parameters A1 = +0.87, A2 = -0.0349.
|